Weather in Columbus

United States     32°28′13″N   84°59′35″W
temp.,
°C
wind,
m/s
gust,
m/s
humid.,
%
clouds,
%
prec.,
mm/h
press.,
hPa
HPBL,
m
18 may, tue
tue1823:00+20ese396499 0.0 1021288
02:00+20se4116447 0.0 1021551
05:00+19ese41174100 0.0 1021640
08:00+19ese3117999 0.0 1024637
11:00+25se575696 0.0 10241506
14:00+28se573786 0.1 10222671
17:00+29se5733100 0.0 10202801
20:00+24e51158100 0.0 1021956
19 may, wed
wed1923:00+23ese51256100 0.0 10231046
02:00+20ese41367100 0.0 1023878
05:00+18e31177100 0.0 1023588
08:00+18e3118257 0.0 1025522
11:00+24ese585694 0.0 10251534
14:00+27ese684797 0.0 10232034
17:00+26ese5853100 0.1 10221935
20:00+23e4106374 0.1 1022803
20 may, thu
thu2023:00+22ese5116315 0.0 1024847
02:00+19ese4117490 0.0 1024750
05:00+17e39835 0.0 1025426
08:00+17e411815 0.0 1027509
11:00+24ese58470 0.0 10261461
14:00+28ese58350 0.0 10251969
17:00+28e57335 0.0 10242232
20:00+24e48495 0.0 1024653
21 may, fri
fri2123:00+22ese4125231 0.0 1025546
02:00+18ese310675 0.0 1026407
05:00+16e278530 0.0 1027204
08:00+17e37805 0.0 1029269
11:00+25ese474953 0.0 10291266
14:00+29ese463544 0.0 10282266
17:00+30e45339 0.0 10262425
20:00+25ese255040 0.0 1025234
22 may, sat
sat2223:00+21ene256135 0.0 1026108
02:00+19ene23655 0.0 102659
05:00+17e117448 0.0 102615
08:00+19ene11715 0.0 1028114
11:00+27ne12476 0.0 1027880
14:00+32ne24349 0.0 10242516
17:00+32ene3431100 0.0 10222669
20:00+27n225089 0.0 102153